Weather History for Hermiston, OR

Change the Weather History Date:

Friday, March 22, 2013

  Actual Average Record
Temperature  
Mean Temperature 40 °F -  
Max Temperature 51 °F 60 °F 78 °F (1940)
Min Temperature 30 °F 35 °F 19 °F (2014)
Degree Days  
Heating Degree Days 24    
Moisture  
Dew Point 24 °F    
Average Humidity 56    
Maximum Humidity 76    
Minimum Humidity 31    
Precipitation  
Precipitation 0.00 in - - ()
Sea Level Pressure  
Sea Level Pressure 30.22 in    
Wind  
Wind Speed 11 mph (WSW)    
Max Wind Speed 16 mph    
Max Gust Speed 22 mph    
Visibility 10 miles    
Events      
Averages and records for this station are not official NWS values.
T = Trace of Precipitation, MM = Missing Value Source: NWS Daily Summary

Daily Weather History Graph

Daily Weather History Graph

Search for Another Location

Airport:

Trip Planner

Search our weather history database for the weather conditions in past years. The results will help you decide how hot, cold, wet, or windy it might be!

Date:

Astronomy

Mar. 22, 2013 Rise Set
Actual Time 6:55 AM PDT 7:12 PM PDT
Civil Twilight 6:25 AM PDT 7:42 PM PDT
Nautical Twilight 5:50 AM PDT 8:17 PM PDT
Astronomical Twilight 5:14 AM PDT 8:53 PM PDT
Moon 2:32 PM PDT (3/22) 4:12 AM PDT (3/22)
Length of Visible Light 13h 16m
Length of Day
12h 17m
Waxing Gibbous, 78% of the Moon is Illuminated
Mar 22
Waxing Gibbous
Mar 27
Full
Apr 2
Last Quarter
Apr 10
New
Apr 18
First Quarter

Hourly Weather History & Observations

Time (PDT) Temp. Windchill Dew Point Humidity Pressure Visibility Wind Dir Wind Speed Gust Speed Precip Events Conditions
12:53 AM 37.0 °F 28.9 °F 28.0 °F 70% 30.14 in 10.0 mi WSW 12.7 mph 21.9 mph N/A   Partly Cloudy
1:53 AM 37.0 °F 29.3 °F 28.0 °F 70% 30.15 in 10.0 mi WSW 11.5 mph 20.7 mph N/A   Overcast
2:53 AM 37.0 °F 29.3 °F 27.0 °F 67% 30.17 in 10.0 mi WSW 11.5 mph - N/A   Overcast
3:53 AM 36.0 °F 26.3 °F 26.1 °F 67% 30.17 in 10.0 mi WSW 16.1 mph 20.7 mph N/A   Overcast
4:53 AM 33.1 °F 25.5 °F 26.1 °F 75% 30.18 in 10.0 mi SW 9.2 mph - N/A   Mostly Cloudy
5:53 AM 32.0 °F 24.8 °F 25.0 °F 75% 30.19 in 10.0 mi SW 8.1 mph - N/A   Clear
6:53 AM 30.9 °F 22.8 °F 24.1 °F 76% 30.19 in 10.0 mi SW 9.2 mph - N/A   Clear
7:53 AM 33.1 °F 25.5 °F 26.1 °F 75% 30.21 in 10.0 mi SW 9.2 mph - N/A   Clear
8:53 AM 37.9 °F 30.0 °F 28.0 °F 68% 30.22 in 10.0 mi WSW 12.7 mph - N/A   Clear
9:53 AM 42.1 °F 35.7 °F 27.0 °F 55% 30.22 in 10.0 mi West 11.5 mph - N/A   Clear
10:53 AM 43.0 °F 37.7 °F 23.0 °F 45% 30.24 in 10.0 mi West 9.2 mph - N/A   Clear
11:53 AM 45.0 °F 41.8 °F 21.9 °F 40% 30.23 in 10.0 mi WNW 5.8 mph - N/A   Partly Cloudy
12:53 PM 46.9 °F - 19.9 °F 34% 30.22 in 10.0 mi West 11.5 mph - N/A   Clear
1:53 PM 46.9 °F - 19.9 °F 34% 30.22 in 10.0 mi West 9.2 mph - N/A   Clear
2:53 PM 50.0 °F - 19.9 °F 31% 30.20 in 10.0 mi West 10.4 mph - N/A   Scattered Clouds
3:53 PM 51.1 °F - 21.0 °F 31% 30.20 in 10.0 mi West 15.0 mph 20.7 mph N/A   Scattered Clouds
4:53 PM 46.9 °F - 19.0 °F 33% 30.22 in 10.0 mi West 8.1 mph - N/A   Scattered Clouds
5:53 PM 46.9 °F - 21.9 °F 37% 30.23 in 10.0 mi West 12.7 mph - N/A   Clear
6:53 PM 43.0 °F 37.2 °F 24.1 °F 47% 30.25 in 10.0 mi WNW 10.4 mph - N/A   Clear
7:53 PM 39.9 °F 35.8 °F 26.1 °F 58% 30.26 in 10.0 mi West 5.8 mph - N/A   Mostly Cloudy
8:53 PM 36.0 °F - 26.1 °F 67% 30.29 in 10.0 mi Calm Calm - N/A   Mostly Cloudy
9:53 PM 39.0 °F 32.8 °F 27.0 °F 62% 30.30 in 10.0 mi SSW 9.2 mph - N/A   Overcast
10:53 PM 36.0 °F 31.1 °F 26.1 °F 67% 30.32 in 10.0 mi SW 5.8 mph - N/A   Overcast
11:53 PM 34.0 °F 28.0 °F 25.0 °F 70% 30.32 in 10.0 mi SW 6.9 mph - N/A   Mostly Cloudy